When you browse on this site, cookies collect data to enhance your experience and personalize the content and advertising you see.
Visit our Privacy Policy to learn more. By continuing to use the site, you agree to this use of cookies and data.
  • In Hungary
  • List of Countries
  • For 7 days
  • Water Temperature
  • Weather Map
  • News
  • Weather Widgets
  • user-avatar
    Login

    Hourly Weather Leusden

    Today, 20 August, Tuesday

    Time Temperature Precipitation Wind Pressure Humidity
    00:00 +13°C° 0 mm 3 mps 763 mmHg 81%
    01:00 +12°C° 0 mm 3 mps 763 mmHg 84%
    02:00 +12°C° 0 mm 3 mps 764 mmHg 87%
    03:00 +12°C° 0 mm 3 mps 764 mmHg 90%
    04:00 +12°C° 0 mm 3 mps 764 mmHg 89%
    05:00 +13°C° 0 mm 3 mps 764 mmHg 89%
    06:00 +13°C° 0 mm 4 mps 765 mmHg 86%
    07:00 +15°C° 0.1 mm 4 mps 765 mmHg 79%
    08:00 +18°C° 0.1 mm 4 mps 765 mmHg 71%
    09:00 +19°C° 0.1 mm 4 mps 765 mmHg 64%
    10:00 +20°C° 0.3 mm 4 mps 765 mmHg 63%
    11:00 +20°C° 0.3 mm 5 mps 766 mmHg 62%
    12:00 +20°C° 0.3 mm 5 mps 766 mmHg 61%
    13:00 +21°C° 0.1 mm 5 mps 766 mmHg 58%
    14:00 +21°C° 0.1 mm 5 mps 766 mmHg 55%
    15:00 +21°C° 0.1 mm 5 mps 766 mmHg 52%
    16:00 +20°C° 0 mm 4 mps 766 mmHg 59%
    17:00 +19°C° 0 mm 3 mps 767 mmHg 65%
    18:00 +17°C° 0 mm 2 mps 767 mmHg 71%
    19:00 +16°C° 0 mm 2 mps 768 mmHg 74%
    20:00 +15°C° 0 mm 2 mps 768 mmHg 77%
    21:00 +14°C° 0 mm 2 mps 768 mmHg 81%
    22:00 +13°C° 0 mm 2 mps 769 mmHg 81%
    23:00 +13°C° 0 mm 2 mps 769 mmHg 81%

    Tomorrow, 21 August, Wednesday

    Time Temperature Precipitation Wind Pressure Humidity
    00:00 +13°C° 0 mm 2 mps 769 mmHg 82%
    01:00 +13°C° 0 mm 2 mps 769 mmHg 83%
    02:00 +12°C° 0 mm 2 mps 769 mmHg 83%
    03:00 +12°C° 0 mm 2 mps 769 mmHg 84%
    04:00 +13°C° 0 mm 2 mps 769 mmHg 84%
    05:00 +13°C° 0 mm 2 mps 770 mmHg 84%
    06:00 +14°C° 0 mm 2 mps 770 mmHg 84%
    07:00 +16°C° 0 mm 2 mps 770 mmHg 77%
    08:00 +18°C° 0 mm 2 mps 770 mmHg 70%
    09:00 +20°C° 0 mm 2 mps 770 mmHg 62%
    10:00 +20°C° 0 mm 2 mps 770 mmHg 58%
    11:00 +21°C° 0 mm 2 mps 770 mmHg 54%
    12:00 +23°C° 0 mm 2 mps 770 mmHg 50%
    13:00 +23°C° 0 mm 2 mps 770 mmHg 49%
    14:00 +23°C° 0 mm 2 mps 770 mmHg 49%
    15:00 +23°C° 0 mm 2 mps 769 mmHg 49%
    16:00 +22°C° 0 mm 1 mps 769 mmHg 54%
    17:00 +21°C° 0 mm 1 mps 769 mmHg 59%
    18:00 +20°C° 0 mm 1 mps 769 mmHg 64%
    19:00 +19°C° 0 mm 1 mps 769 mmHg 65%
    20:00 +17°C° 0 mm 2 mps 769 mmHg 66%
    21:00 +16°C° 0 mm 2 mps 769 mmHg 67%
    22:00 +15°C° 0 mm 2 mps 769 mmHg 67%
    23:00 +15°C° 0 mm 2 mps 769 mmHg 67%

    Day after tomorrow, 22 August, Thursday

    Time Temperature Precipitation Wind Pressure Humidity
    00:00 +14°C° 0 mm 2 mps 769 mmHg 68%
    01:00 +14°C° 0 mm 2 mps 768 mmHg 69%
    02:00 +14°C° 0 mm 2 mps 768 mmHg 69%
    03:00 +13°C° 0 mm 2 mps 768 mmHg 70%
    04:00 +14°C° 0 mm 2 mps 768 mmHg 70%
    05:00 +14°C° 0 mm 2 mps 768 mmHg 70%
    06:00 +15°C° 0 mm 2 mps 768 mmHg 70%
    07:00 +17°C° 0 mm 2 mps 768 mmHg 66%
    08:00 +18°C° 0 mm 2 mps 768 mmHg 62%
    09:00 +20°C° 0 mm 3 mps 768 mmHg 59%
    10:00 +21°C° 0 mm 3 mps 768 mmHg 55%
    11:00 +22°C° 0 mm 3 mps 768 mmHg 52%
    12:00 +23°C° 0 mm 4 mps 768 mmHg 49%
    13:00 +23°C° 0 mm 4 mps 768 mmHg 48%
    14:00 +23°C° 0 mm 4 mps 768 mmHg 48%
    15:00 +23°C° 0 mm 4 mps 768 mmHg 47%
    16:00 +22°C° 0 mm 3 mps 768 mmHg 52%
    17:00 +20°C° 0 mm 2 mps 768 mmHg 56%
    18:00 +20°C° 0 mm 1 mps 768 mmHg 61%
    19:00 +19°C° 0 mm 1 mps 768 mmHg 62%
    20:00 +16°C° 0 mm 1 mps 769 mmHg 63%
    21:00 +14°C° 0 mm 0 mps 769 mmHg 65%
    22:00 +13°C° 0 mm 0 mps 769 mmHg 65%
    23:00 +14°C° 0 mm 1 mps 769 mmHg 65%

    23 August, Friday

    Time Temperature Precipitation Wind Pressure Humidity
    00:00 +14°C° 0 mm 1 mps 768 mmHg 65%
    01:00 +14°C° 0 mm 1 mps 768 mmHg 66%
    02:00 +13°C° 0 mm 1 mps 768 mmHg 67%
    03:00 +13°C° 0 mm 1 mps 768 mmHg 67%
    04:00 +14°C° 0 mm 1 mps 768 mmHg 68%
    05:00 +14°C° 0 mm 1 mps 768 mmHg 68%
    06:00 +15°C° 0 mm 1 mps 768 mmHg 69%
    07:00 +18°C° 0 mm 1 mps 768 mmHg 63%
    08:00 +20°C° 0 mm 1 mps 769 mmHg 57%
    09:00 +22°C° 0 mm 1 mps 769 mmHg 51%
    10:00 +24°C° 0 mm 1 mps 769 mmHg 48%
    11:00 +25°C° 0 mm 1 mps 768 mmHg 45%
    12:00 +26°C° 0 mm 1 mps 768 mmHg 42%
    13:00 +24°C° 0 mm 0 mps 768 mmHg 42%
    14:00 +24°C° 0 mm 0 mps 768 mmHg 42%
    15:00 +24°C° 0 mm 0 mps 767 mmHg 41%
    16:00 +25°C° 0 mm 1 mps 767 mmHg 48%
    17:00 +23°C° 0 mm 1 mps 767 mmHg 55%
    18:00 +21°C° 0 mm 2 mps 767 mmHg 62%
    19:00 +20°C° 0 mm 2 mps 767 mmHg 65%
    20:00 +19°C° 0 mm 2 mps 767 mmHg 69%
    21:00 +18°C° 0 mm 2 mps 767 mmHg 72%
    22:00 +17°C° 0 mm 2 mps 767 mmHg 74%
    23:00 +17°C° 0 mm 2 mps 767 mmHg 75%

    24 August, Saturday

    Time Temperature Precipitation Wind Pressure Humidity
    00:00 +16°C° 0 mm 2 mps 767 mmHg 76%
    01:00 +16°C° 0 mm 2 mps 767 mmHg 77%
    02:00 +16°C° 0 mm 2 mps 766 mmHg 77%
    03:00 +16°C° 0 mm 2 mps 766 mmHg 77%
    04:00 +16°C° 0 mm 2 mps 766 mmHg 77%
    05:00 +16°C° 0 mm 2 mps 766 mmHg 77%
    06:00 +16°C° 0 mm 2 mps 766 mmHg 78%
    07:00 +18°C° 0 mm 3 mps 766 mmHg 72%
    08:00 +21°C° 0 mm 3 mps 766 mmHg 66%
    09:00 +24°C° 0 mm 3 mps 766 mmHg 60%
    10:00 +25°C° 0 mm 3 mps 766 mmHg 56%
    11:00 +27°C° 0 mm 3 mps 765 mmHg 52%
    12:00 +28°C° 0 mm 3 mps 765 mmHg 47%
    13:00 +28°C° 0 mm 3 mps 765 mmHg 47%
    14:00 +28°C° 0 mm 3 mps 765 mmHg 47%
    15:00 +28°C° 0 mm 3 mps 764 mmHg 47%
    16:00 +27°C° 0 mm 3 mps 764 mmHg 54%
    17:00 +25°C° 0 mm 3 mps 764 mmHg 60%
    18:00 +24°C° 0 mm 3 mps 764 mmHg 67%
    19:00 +22°C° 0 mm 3 mps 764 mmHg 71%
    20:00 +21°C° 0 mm 4 mps 764 mmHg 75%
    21:00 +19°C° 0 mm 4 mps 764 mmHg 79%
    22:00 +19°C° 0 mm 4 mps 764 mmHg 81%
    23:00 +18°C° 0 mm 4 mps 764 mmHg 84%

    25 August, Sunday

    Time Temperature Precipitation Wind Pressure Humidity
    00:00 +18°C° 0 mm 3 mps 764 mmHg 86%
    01:00 +17°C° 0 mm 3 mps 764 mmHg 87%
    02:00 +17°C° 0 mm 3 mps 764 mmHg 88%
    03:00 +16°C° 0 mm 3 mps 764 mmHg 89%
    04:00 +17°C° 0 mm 3 mps 764 mmHg 87%
    05:00 +17°C° 0 mm 2 mps 764 mmHg 85%
    06:00 +18°C° 0 mm 2 mps 764 mmHg 82%
    07:00 +20°C° 0 mm 2 mps 764 mmHg 75%
    08:00 +23°C° 0 mm 2 mps 764 mmHg 68%
    09:00 +25°C° 0 mm 2 mps 764 mmHg 60%
    10:00 +27°C° 0 mm 2 mps 764 mmHg 56%
    11:00 +28°C° 0 mm 2 mps 764 mmHg 52%
    12:00 +29°C° 0 mm 3 mps 764 mmHg 48%
    13:00 +29°C° 0 mm 2 mps 764 mmHg 47%
    14:00 +30°C° 0 mm 2 mps 764 mmHg 47%
    15:00 +30°C° 0 mm 2 mps 764 mmHg 46%
    16:00 +28°C° 0 mm 2 mps 764 mmHg 52%
    17:00 +27°C° 0 mm 2 mps 764 mmHg 59%
    18:00 +25°C° 0 mm 3 mps 764 mmHg 65%
    19:00 +24°C° 0 mm 3 mps 765 mmHg 68%
    20:00 +22°C° 0 mm 3 mps 765 mmHg 70%
    21:00 +21°C° 0 mm 3 mps 765 mmHg 72%
    22:00 +20°C° 0 mm 3 mps 765 mmHg 73%
    23:00 +19°C° 0 mm 3 mps 766 mmHg 73%
    Show more